| time (UTC) | temp F | wind direction | speed MPH | gust MPH | rain 1hr in | rain 24hr in | rain mn in | humidity % | barometer mb |
| 20260503044529 | 36 | 240 | 2.0 | 2.0 | 0.00 | 0.00 | 0.00 | 77 | 1017.4 |
| 20260503043028 | 36 | 240 | 2.0 | 2.0 | 0.00 | 0.00 | 0.00 | 78 | 1017.3 |
| 20260503041528 | 36 | 240 | 1.0 | 1.0 | 0.00 | 0.00 | 0.00 | 78 | 1017.3 |
| 20260503040030 | 36 | 240 | 1.0 | 2.0 | 0.00 | 0.00 | 0.00 | 76 | 1017.3 |
| 20260503034538 | 37 | 240 | 2.0 | 2.0 | 0.00 | 0.00 | 0.00 | 77 | 1017.4 |
| 20260503033007 | 38 | 240 | 1.0 | 2.0 | 0.00 | 0.00 | 0.00 | 76 | 1017.4 |
| 20260503031503 | 38 | 235 | 3.0 | 3.0 | 0.00 | 0.00 | 0.00 | 77 | 1017.4 |
| 20260503030022 | 38 | 209 | 2.0 | 3.0 | 0.00 | 0.00 | 0.00 | 80 | 1017.4 |
| 20260503024520 | 38 | 209 | 2.0 | 3.0 | 0.00 | 0.00 | 0.00 | 81 | 1017.5 |
| 20260503023014 | 39 | 209 | 3.0 | 3.0 | 0.00 | 0.00 | 0.00 | 79 | 1017.5 |
| 20260503021513 | 41 | 209 | 3.0 | 4.0 | 0.00 | 0.00 | 0.00 | 76 | 1017.5 |
| 20260503020009 | 41 | 209 | 3.0 | 4.0 | 0.00 | 0.00 | 0.00 | 76 | 1017.4 |
| 20260503014531 | 42 | 263 | 2.0 | 3.0 | 0.00 | 0.00 | 0.00 | 76 | 1017.3 |
| 20260503013018 | 42 | 263 | 2.0 | 3.0 | 0.00 | 0.00 | 0.00 | 76 | 1017.2 |
| 20260503011511 | 42 | 263 | 2.0 | 3.0 | 0.00 | 0.00 | 0.00 | 76 | 1017.3 |
| 20260503010010 | 42 | 263 | 1.0 | 2.0 | 0.00 | 0.00 | 0.00 | 76 | 1017.2 |
| 20260503004510 | 44 | 263 | 2.0 | 3.0 | 0.00 | 0.00 | 0.00 | 72 | 1017.1 |
| 20260503003024 | 45 | 263 | 2.0 | 3.0 | 0.00 | 0.00 | 0.00 | 68 | 1017.1 |
| 20260503001524 | 45 | 263 | 2.0 | 2.0 | 0.00 | 0.00 | 0.00 | 59 | 1017.1 |
| 20260503000018 | 46 | 263 | 1.0 | 2.0 | 0.00 | 0.02 | 0.00 | 50 | 1017.1 |
| 20260502234515 | 46 | 267 | 2.0 | 5.0 | 0.00 | 0.02 | 0.00 | 49 | 1017.0 |
| 20260502233015 | 47 | 284 | 3.0 | 7.0 | 0.00 | 0.02 | 0.00 | 47 | 1017.0 |
| 20260502231519 | 47 | 275 | 6.0 | 10.0 | 0.00 | 0.02 | 0.00 | 44 | 1017.1 |
| 20260502230011 | 47 | 282 | 5.0 | 9.0 | 0.00 | 0.02 | 0.00 | 42 | 1017.2 |
| 20260502224524 | 48 | 284 | 7.0 | 11.0 | 0.00 | 0.02 | 0.00 | 45 | 1017.2 |
| 20260502223024 | 48 | 298 | 6.0 | 12.0 | 0.00 | 0.02 | 0.00 | 44 | 1017.2 |
| 20260502221521 | 48 | 285 | 10.0 | 12.0 | 0.00 | 0.02 | 0.00 | 42 | 1017.3 |
| 20260502220023 | 48 | 276 | 8.0 | 12.0 | 0.00 | 0.02 | 0.00 | 43 | 1017.3 |
| 20260502214527 | 47 | 268 | 7.0 | 9.0 | 0.00 | 0.02 | 0.00 | 49 | 1017.2 |
| 20260502213014 | 47 | 281 | 6.0 | 11.0 | 0.00 | 0.02 | 0.00 | 44 | 1017.3 |
| 20260502211541 | 47 | 336 | 5.0 | 13.0 | 0.00 | 0.02 | 0.00 | 45 | 1017.3 |
| 20260502210027 | 48 | 290 | 7.0 | 14.0 | 0.00 | 0.02 | 0.00 | 48 | 1017.2 |
| 20260502204524 | 47 | 314 | 7.0 | 12.0 | 0.00 | 0.02 | 0.00 | 45 | 1017.4 |
| 20260502203025 | 47 | 355 | 6.0 | 11.0 | 0.00 | 0.02 | 0.00 | 44 | 1017.4 |
| 20260502201522 | 47 | 320 | 4.0 | 10.0 | 0.00 | 0.02 | 0.00 | 47 | 1017.5 |
| 20260502200034 | 47 | 302 | 7.0 | 12.0 | 0.00 | 0.03 | 0.00 | 47 | 1017.7 |
| 20260502194531 | 46 | 348 | 5.0 | 11.0 | 0.00 | 0.04 | 0.00 | 47 | 1017.8 |
| 20260502193027 | 46 | 302 | 6.0 | 10.0 | 0.00 | 0.04 | 0.00 | 46 | 1017.9 |
| 20260502191527 | 46 | 313 | 5.0 | 12.0 | 0.00 | 0.04 | 0.00 | 46 | 1017.9 |
| 20260502190031 | 46 | 277 | 6.0 | 12.0 | 0.00 | 0.04 | 0.00 | 54 | 1018.0 |
| 20260502184526 | 46 | 305 | 5.0 | 10.0 | 0.00 | 0.04 | 0.00 | 50 | 1018.1 |
| 20260502183014 | 46 | 5 | 6.0 | 12.0 | 0.00 | 0.04 | 0.00 | 48 | 1018.2 |
| 20260502181515 | 46 | 306 | 4.0 | 10.0 | 0.00 | 0.04 | 0.00 | 47 | 1018.2 |
| 20260502163019 | 44 | 285 | 4.0 | 15.0 | 0.00 | 0.04 | 0.00 | 50 | 1018.8 |
| 20260502161516 | 44 | 292 | 6.0 | 9.0 | 0.00 | 0.04 | 0.00 | 52 | 1018.8 |
| 20260502151505 | 43 | 288 | 4.0 | 16.0 | 0.00 | 0.04 | 0.00 | 62 | 1018.8 |
| 20260502123015 | 37 | 311 | 6.0 | 11.0 | 0.00 | 0.11 | 0.00 | 73 | 1018.2 |
| 20260502121512 | 36 | 314 | 4.0 | 10.0 | 0.00 | 0.12 | 0.00 | 76 | 1018.2 |
| 20260502114525 | 34 | 330 | 3.0 | 8.0 | 0.00 | 0.14 | 0.00 | 78 | 1018.2 |
| 20260502113025 | 34 | 301 | 3.0 | 6.0 | 0.00 | 0.15 | 0.00 | 79 | 1018.1 |
| 20260502111525 | 33 | 292 | 3.0 | 5.0 | 0.00 | 0.16 | 0.00 | 80 | 1018.0 |
| 20260502110018 | 33 | 290 | 1.0 | 5.0 | 0.00 | 0.16 | 0.00 | 81 | 1017.9 |
| 20260502104514 | 32 | 311 | 2.0 | 5.0 | 0.00 | 0.16 | 0.00 | 81 | 1017.6 |
| 20260502103013 | 32 | 313 | 2.0 | 4.0 | 0.00 | 0.16 | 0.00 | 81 | 1017.7 |
| 20260502101525 | 33 | 340 | 1.0 | 3.0 | 0.00 | 0.17 | 0.00 | 80 | 1017.8 |
| 20260502091520 | 34 | 292 | 4.0 | 7.0 | 0.00 | 0.21 | 0.00 | 78 | 1017.4 |
| 20260502071525 | 36 | 285 | 7.0 | 10.0 | 0.00 | 0.33 | 0.00 | 71 | 1017.1 |
| 20260502070028 | 36 | 286 | 7.0 | 10.0 | 0.00 | 0.33 | 0.00 | 72 | 1017.1 |
| 20260502064531 | 36 | 284 | 5.0 | 9.0 | 0.00 | 0.34 | 0.00 | 72 | 1017.2 |
| 20260502063010 | 37 | 284 | 5.0 | 9.0 | 0.00 | 0.35 | 0.00 | 72 | 1017.3 |
| 20260502061504 | 37 | 311 | 5.0 | 11.0 | 0.00 | 0.36 | 0.00 | 72 | 1017.3 |
| 20260502060023 | 37 | 313 | 5.0 | 8.0 | 0.00 | 0.37 | 0.00 | 71 | 1017.3 |
| 20260502054504 | 38 | 293 | 5.0 | 9.0 | 0.00 | 0.38 | 0.00 | 70 | 1017.3 |
| 20260502053017 | 38 | 279 | 4.0 | 9.0 | 0.00 | 0.38 | 0.00 | 70 | 1017.4 |
| 20260502051513 | 38 | 282 | 5.0 | 10.0 | 0.00 | 0.38 | 0.00 | 69 | 1017.3 |
| 20260502050014 | 38 | 282 | 6.0 | 8.0 | 0.00 | 0.38 | 0.00 | 73 | 1017.4 |